When you browse on this site, cookies collect data to enhance your experience and personalize the content and advertising you see.
Visit our Privacy Policy to learn more. By continuing to use the site, you agree to this use of cookies and data.
  • In Sweden
  • List of Countries
  • For 7 days
  • Water Temperature
  • Weather Map
  • Weather Widgets
  • user-avatar
    Login

    Hourly Weather Sutki

    Today, 20 February, Thursday

    Time Temperature Precipitation Wind Pressure Humidity
    00:00 +1°C° 0 mm 3 mps 746 mmHg 84%
    01:00 +1°C° 0 mm 3 mps 746 mmHg 85%
    02:00 +1°C° 0 mm 3 mps 746 mmHg 87%
    03:00 +1°C° 0 mm 3 mps 746 mmHg 90%
    04:00 +2°C° 0 mm 2 mps 746 mmHg 92%
    05:00 +2°C° 0 mm 2 mps 747 mmHg 94%
    06:00 +2°C° 0.1 mm 2 mps 747 mmHg 95%
    07:00 +2°C° 0.1 mm 2 mps 747 mmHg 95%
    08:00 +3°C° 0.1 mm 2 mps 748 mmHg 95%
    09:00 +2°C° 0 mm 3 mps 748 mmHg 93%
    10:00 +2°C° 0 mm 3 mps 749 mmHg 90%
    11:00 +2°C° 0 mm 3 mps 750 mmHg 88%
    12:00 +3°C° 0 mm 3 mps 750 mmHg 86%
    13:00 +3°C° 0 mm 3 mps 750 mmHg 85%
    14:00 +3°C° 0 mm 3 mps 750 mmHg 84%
    15:00 +4°C° 0 mm 2 mps 750 mmHg 83%
    16:00 +4°C° 0 mm 2 mps 751 mmHg 81%
    17:00 +5°C° 0 mm 1 mps 751 mmHg 80%
    18:00 +4°C° 0 mm 1 mps 751 mmHg 82%
    19:00 +4°C° 0 mm 1 mps 751 mmHg 83%
    20:00 +3°C° 0 mm 1 mps 752 mmHg 85%
    21:00 +3°C° 0 mm 1 mps 752 mmHg 85%
    22:00 +1°C° 0 mm 2 mps 751 mmHg 84%
    23:00 +1°C° 0 mm 2 mps 751 mmHg 84%

    Tomorrow, 21 February, Friday

    Time Temperature Precipitation Wind Pressure Humidity
    00:00 +1°C° 0 mm 2 mps 751 mmHg 83%
    01:00 +1°C° 0 mm 2 mps 751 mmHg 82%
    02:00 -1°C° 0 mm 3 mps 751 mmHg 80%
    03:00 -1°C° 0 mm 3 mps 751 mmHg 81%
    04:00 -1°C° 0 mm 3 mps 750 mmHg 81%
    05:00 -1°C° 0 mm 3 mps 749 mmHg 82%
    06:00 -2°C° 0 mm 4 mps 749 mmHg 81%
    07:00 -2°C° 0 mm 4 mps 749 mmHg 81%
    08:00 -2°C° 0 mm 5 mps 749 mmHg 81%
    15:00 +1°C° 0.3 mm 6 mps 746 mmHg 84%
    16:00 +1°C° 0.3 mm 6 mps 747 mmHg 90%
    17:00 0°C° 0.3 mm 5 mps 747 mmHg 96%
    18:00 0°C° 0.2 mm 5 mps 748 mmHg 93%
    19:00 0°C° 0.2 mm 5 mps 749 mmHg 91%
    20:00 0°C° 0.2 mm 5 mps 749 mmHg 88%
    21:00 0°C° 0 mm 5 mps 750 mmHg 87%
    22:00 0°C° 0 mm 4 mps 750 mmHg 86%
    23:00 -1°C° 0 mm 4 mps 751 mmHg 84%

    Day after tomorrow, 22 February, Saturday

    Time Temperature Precipitation Wind Pressure Humidity
    00:00 -1°C° 0 mm 4 mps 751 mmHg 86%
    01:00 -1°C° 0 mm 4 mps 752 mmHg 88%
    02:00 -2°C° 0 mm 4 mps 752 mmHg 89%
    03:00 -1°C° 0 mm 3 mps 752 mmHg 90%
    04:00 -1°C° 0 mm 3 mps 752 mmHg 91%
    05:00 -1°C° 0 mm 3 mps 753 mmHg 92%
    06:00 -1°C° 0 mm 3 mps 753 mmHg 93%
    07:00 -1°C° 0 mm 3 mps 753 mmHg 94%
    08:00 -1°C° 0 mm 3 mps 753 mmHg 94%
    09:00 -1°C° 0 mm 4 mps 753 mmHg 87%
    10:00 0°C° 0 mm 5 mps 753 mmHg 80%
    11:00 +2°C° 0 mm 6 mps 753 mmHg 73%
    12:00 +2°C° 0 mm 6 mps 752 mmHg 69%
    13:00 +3°C° 0 mm 6 mps 752 mmHg 64%
    14:00 +4°C° 0 mm 7 mps 752 mmHg 60%
    15:00 +3°C° 0 mm 7 mps 751 mmHg 61%
    16:00 +3°C° 0 mm 6 mps 750 mmHg 62%
    17:00 +3°C° 0 mm 6 mps 749 mmHg 63%
    18:00 +3°C° 0 mm 7 mps 748 mmHg 64%
    19:00 +3°C° 0 mm 7 mps 747 mmHg 64%
    20:00 +1°C° 0 mm 8 mps 747 mmHg 65%
    21:00 +2°C° 0 mm 8 mps 746 mmHg 65%
    22:00 +2°C° 0 mm 8 mps 745 mmHg 66%
    23:00 +2°C° 0 mm 8 mps 744 mmHg 67%

    23 February, Sunday

    Time Temperature Precipitation Wind Pressure Humidity
    00:00 +4°C° 0 mm 8 mps 744 mmHg 65%
    01:00 +4°C° 0 mm 8 mps 743 mmHg 64%
    02:00 +3°C° 0 mm 9 mps 743 mmHg 63%
    03:00 +3°C° 0.1 mm 9 mps 742 mmHg 70%
    04:00 +3°C° 0.1 mm 9 mps 741 mmHg 76%
    05:00 +3°C° 0.1 mm 9 mps 741 mmHg 83%
    06:00 +2°C° 0.4 mm 8 mps 741 mmHg 82%
    07:00 +2°C° 0.4 mm 8 mps 741 mmHg 81%
    08:00 +1°C° 0.4 mm 8 mps 741 mmHg 80%
    09:00 +2°C° 0.1 mm 8 mps 741 mmHg 73%
    10:00 +2°C° 0.1 mm 9 mps 741 mmHg 66%
    11:00 +2°C° 0.1 mm 9 mps 742 mmHg 59%
    12:00 +3°C° 0.2 mm 9 mps 742 mmHg 57%
    13:00 +3°C° 0.2 mm 9 mps 742 mmHg 55%
    14:00 +3°C° 0.2 mm 9 mps 742 mmHg 52%
    15:00 +2°C° 0.2 mm 8 mps 741 mmHg 54%
    16:00 +3°C° 0.2 mm 7 mps 741 mmHg 56%
    17:00 +3°C° 0.2 mm 6 mps 741 mmHg 57%
    18:00 +2°C° 0.1 mm 6 mps 741 mmHg 62%
    19:00 +1°C° 0.1 mm 6 mps 741 mmHg 67%
    20:00 +1°C° 0.1 mm 5 mps 741 mmHg 72%
    21:00 0°C° 0 mm 5 mps 741 mmHg 73%
    22:00 0°C° 0 mm 5 mps 740 mmHg 75%
    23:00 0°C° 0 mm 5 mps 740 mmHg 76%

    24 February, Monday

    Time Temperature Precipitation Wind Pressure Humidity
    00:00 -1°C° 0 mm 5 mps 740 mmHg 78%
    01:00 -1°C° 0 mm 5 mps 739 mmHg 80%
    02:00 -1°C° 0 mm 5 mps 739 mmHg 82%
    03:00 -2°C° 0 mm 6 mps 739 mmHg 82%
    04:00 -2°C° 0 mm 6 mps 739 mmHg 82%
    05:00 -1°C° 0 mm 7 mps 739 mmHg 81%
    06:00 -1°C° 0 mm 8 mps 739 mmHg 82%
    07:00 -1°C° 0 mm 8 mps 739 mmHg 83%
    08:00 -1°C° 0 mm 9 mps 740 mmHg 84%
    09:00 0°C° 0 mm 9 mps 741 mmHg 75%
    10:00 +1°C° 0 mm 9 mps 741 mmHg 66%
    11:00 +2°C° 0 mm 10 mps 742 mmHg 57%
    12:00 +2°C° 0 mm 9 mps 743 mmHg 56%
    13:00 +3°C° 0 mm 9 mps 743 mmHg 54%
    14:00 +3°C° 0 mm 9 mps 744 mmHg 53%
    15:00 +4°C° 0 mm 8 mps 744 mmHg 54%
    16:00 +2°C° 0 mm 8 mps 744 mmHg 55%
    17:00 +3°C° 0 mm 7 mps 745 mmHg 56%
    18:00 +2°C° 0 mm 6 mps 745 mmHg 59%
    19:00 +1°C° 0 mm 5 mps 746 mmHg 62%
    20:00 0°C° 0 mm 5 mps 746 mmHg 65%
    21:00 0°C° 0 mm 4 mps 747 mmHg 68%
    22:00 -1°C° 0 mm 4 mps 747 mmHg 71%
    23:00 -2°C° 0 mm 4 mps 748 mmHg 75%

    25 February, Tuesday

    Time Temperature Precipitation Wind Pressure Humidity
    00:00 -1°C° 0 mm 3 mps 747 mmHg 76%
    01:00 -1°C° 0 mm 3 mps 747 mmHg 78%
    02:00 -1°C° 0 mm 2 mps 747 mmHg 80%
    03:00 -1°C° 0 mm 2 mps 747 mmHg 80%
    04:00 -1°C° 0 mm 2 mps 746 mmHg 80%
    05:00 -1°C° 0 mm 2 mps 746 mmHg 80%
    06:00 -1°C° 0.1 mm 3 mps 745 mmHg 83%
    07:00 -1°C° 0.1 mm 3 mps 745 mmHg 87%
    08:00 -2°C° 0.1 mm 4 mps 744 mmHg 90%
    09:00 -1°C° 0.1 mm 5 mps 743 mmHg 91%
    10:00 -2°C° 0.1 mm 6 mps 743 mmHg 92%
    11:00 -2°C° 0.1 mm 6 mps 742 mmHg 93%
    12:00 -1°C° 0 mm 6 mps 742 mmHg 92%
    13:00 -1°C° 0 mm 6 mps 741 mmHg 91%
    14:00 +1°C° 0 mm 6 mps 741 mmHg 90%
    15:00 +2°C° 0 mm 5 mps 740 mmHg 91%
    16:00 +4°C° 0 mm 4 mps 740 mmHg 92%
    17:00 +5°C° 0 mm 4 mps 739 mmHg 93%
    18:00 +5°C° 0.1 mm 4 mps 739 mmHg 93%
    19:00 +5°C° 0.1 mm 5 mps 739 mmHg 93%
    20:00 +5°C° 0.1 mm 5 mps 739 mmHg 92%
    21:00 +5°C° 0.3 mm 5 mps 739 mmHg 92%
    22:00 +3°C° 0.3 mm 5 mps 739 mmHg 92%
    23:00 +4°C° 0.3 mm 4 mps 739 mmHg 92%
    Show more